Regional & State Weather Roundups


420 
ASUS44 KLCH 241510
RWRLCH
REGIONAL WEATHER ROUNDUP
NATIONAL WEATHER SERVICE LAKE CHARLES LA
1000 AM CDT MON JUN 24 2019
Note: "fair" indicates few or no clouds below 12,000 feet with no
significant weather and/or obstructions to visibility.
ACROSS SOUTHEAST TEXAS
  
CITY           SKY/WX    TMP DP  RH WIND       PRES   REMARKS
BEAUMONT       LGT RAIN  72  66  81 E7        30.06R                  
BEAUMONT CITY  NOT AVBL                                               
ORANGE         DRIZZLE   70  70 100 E5        30.08R                  
JASPER         LGT RAIN  64  64  98 S5        30.03F                  
$$
ACROSS CENTRAL LOUISIANA
  
CITY           SKY/WX    TMP DP  RH WIND       PRES   REMARKS
LEESVILLE      CLOUDY    68  66  95 S14       30.00F                  
FULLERTON      PTSUNNY   68  66  93 VRB6      29.97F                  
ALEXANDRIA INT LGT RAIN  68  66  93 SE21      29.94F                  
ESLER FIELD      N/A    N/A N/A N/A MISG        N/A                   
DERIDDER       CLOUDY    69  67  95 S8        30.04F                  
OAKDALE        LGT RAIN N/A N/A N/A CALM      30.05S                  
OPELOUSAS      RAIN      68  65  93 CALM      30.05S                  
$$
ACROSS SOUTHWEST AND SOUTH CENTRAL LOUISIANA
  
CITY           SKY/WX    TMP DP  RH WIND       PRES   REMARKS
DEQUINCY         N/A     67  66  94 E3        30.06R                  
SULPHUR        LGT RAIN  70  67  92 E5        30.07R                  
LAKE CHARLES   LGT RAIN  70  67  90 VRB3      30.07R                  
CHENNAULT INT  LGT RAIN  68  68 100 NE8       30.07R                  
CAMERON PHI    NOT AVBL                                               
GRAND CHENIER  NOT AVBL                                               
JENNINGS       LGT RAIN  67  66  96 NE5       30.06R                  
LAFAYETTE      RAIN      70  67  90 N6        30.06R                  
NEW IBERIA     HVY RAIN  69  67  93 N5        30.06R FOG              
ABBEVILLE      LGT RAIN  67  67 100 N5        30.05F                  
PATTERSON      PTSUNNY   71  68  90 NE7       30.06R                  
SALT POINT       N/A     71  68  90 MISG      30.03S                  
$$
SELECTED SITES ACROSS THE REGION
  
CITY           SKY/WX    TMP DP  RH WIND       PRES   REMARKS
HOUSTON BUSH   LGT RAIN  69  68  96 E21G31    29.91F                  
HOUSTON HOBBY  LGT RAIN  71  67  87 E14       29.99F                  
GALVESTON      RAIN      73  68  84 NE17      30.04R                  
COLLEGE STAT   PTSUNNY   72  68  87 NW8       30.00R                  
CONROE         MOSUNNY   69  66  90 SE7       29.95F                  
HUNTSVILLE     SUNNY     70  66  87 CALM      29.93S                  
LUFKIN         SUNNY     67  66  97 SE16      29.90F                  
SHREVEPORT     PTSUNNY   70  67  90 W7        29.95R                  
MONROE         FAIR      71  64  78 VRB6      29.89F                  
NATCHEZ MS     NOT AVBL                                               
BATON ROUGE    FAIR      74  69  85 NW3       30.03R                  
N.O. INTL ARPT CLOUDY    78  69  73 NE5       30.02S                  
SLIDELL        FAIR      78  70  76 CALM      30.02R                  
$$
MARINE REPORTS
  
STATION/POSITION TIME  SKY/WX   TEMP    WIND        PRES    VSBY
                                AIR SEA DIR/SP/G
                 (UTC)          (F)     (DEG/KT/KT) (MB)    (MI)
BUOY 30 S HIGH I NOT AVBL
SEA RIM ST PARK  1500            70      90/  4/  6 1017.8R
PORT ARTHUR      1430            72 83   70/  6/ 12 1018.2R
SABINE PASS N    1430            70 84   70/  9/ 12 1019.2R
TEXAS POINT      1430            69 84   50/ 12/ 16 1017.2R
CALCASIEU PASS   1430            69 84   80/ 10/ 14 1016.8R
LK CHARLES BEACH 1430            69 84              1017.3F
MARSH ISLAND     1400            72                   N/A
FRESH WATER LOCK NOT AVBL
AMERADA PASS     1424            69 81   20/  5/ 11 1017.3
$$